Lapse_Rate
6.0 6.0 7.1 8.9 8.6 9.2 9.3 9.2 9.0 8.5 9.0 8.8 8.9 8.6 8.7 8.3 8.7 8.0 7.8 7.7 8.4 8.2 8.3 8.3 7.9 7.9 7.7 7.0 6.7 7.5 8.8 9.3 9.3 7.4 6.9 7.4 7.1 6.6 6.5 6.4 6.4 6.5 6.5 6.7 6.8 6.0 5.4
5.9 5.9 6.7 8.4 9.1 8.9 9.1 9.2 8.8 8.7 8.3 8.8 9.0 8.4 8.7 8.8 8.7 8.1 7.8 7.4 8.2 8.0 8.1 7.9 7.9 8.0 7.3 6.5 8.2 8.7 8.2 8.7 9.1 7.7 6.7 6.9 7.1 7.1 6.3 6.4 6.4 6.1 6.5 6.6 6.2 5.7 6.3
5.6 5.6 6.1 8.1 8.5 9.1 9.2 9.3 8.4 8.6 8.7 8.9 8.8 8.3 8.1 8.7 7.9 7.7 7.4 7.7 8.1 8.2 7.8 8.0 8.1 8.5 7.8 6.6 8.3 7.6 8.6 7.5 7.1 7.8 7.2 6.1 6.6 7.2 6.1 6.5 6.4 6.7 6.5 6.5 6.2 6.1 6.5
5.3 5.5 6.0 7.4 8.2 8.9 9.0 9.3 8.9 8.1 8.3 8.6 8.8 8.5 8.3 7.7 7.6 7.2 7.5 7.6 8.0 7.7 7.6 7.9 8.2 7.9 7.2 7.6 7.8 7.2 7.9 8.6 7.4 6.4 7.4 7.0 6.4 7.3 6.2 6.0 6.3 6.5 6.5 6.5 6.5 6.2 6.3
5.1 5.5 5.8 6.5 7.9 8.4 8.2 9.2 9.3 8.5 8.6 8.0 8.6 8.2 7.7 7.7 7.7 7.7 7.6 7.5 7.3 7.4 7.5 7.9 7.8 7.2 6.8 8.9 7.5 7.5 7.9 8.3 8.1 7.0 5.5 6.9 6.5 6.7 6.1 6.5 6.5 6.5 6.5 6.5 6.5 6.0 6.5
5.2 5.4 5.5 5.9 7.7 7.7 9.2 9.1 9.2 9.3 8.2 7.9 7.7 7.3 7.2 7.3 7.7 7.7 7.6 7.4 7.1 7.2 7.4 8.8 8.3 7.0 6.9 7.4 7.1 7.1 7.9 8.0 7.3 6.2 6.4 6.1 6.2 6.5 6.5 6.5 6.5 6.5 6.5 6.5 6.5 6.5 6.5
5.0 5.3 5.5 6.3 7.1 7.2 8.2 8.4 8.7 9.2 9.2 7.0 6.5 6.2 6.9 7.3 7.1 7.3 6.1 5.6 5.7 6.1 7.5 6.8 6.9 7.0 7.8 6.6 7.3 7.2 7.1 7.5 7.4 6.3 6.5 6.5 6.5 6.5 6.5 6.5 6.5 6.5 6.5 6.5 6.5 6.5 6.5
4.8 5.3 5.4 6.0 6.9 6.2 7.6 8.0 8.0 8.8 8.7 8.4 5.9 6.0 6.3 7.1 7.5 7.8 6.8 6.6 6.8 7.3 6.5 7.0 7.6 7.8 5.9 6.1 6.3 7.2 7.5 6.8 6.9 6.5 6.5 6.5 6.5 6.5 6.5 6.5 6.5 6.5 6.5 6.5 6.5 6.5 6.5
4.6 5.1 5.3 5.7 6.7 6.6 6.8 6.9 7.0 7.3 7.4 7.1 5.5 5.6 6.1 6.8 7.4 6.8 6.5 6.7 7.1 7.6 6.6 7.1 7.7 6.8 6.1 6.7 7.0 7.1 7.3 7.3 6.5 6.5 6.5 6.5 6.5 6.5 6.5 6.5 6.5 6.5 6.5 6.5 6.5 6.5 6.5
4.6 5.0 5.2 5.5 6.2 7.3 6.1 6.5 6.5 6.7 5.4 5.5 5.4 5.4 5.7 6.6 6.5 6.9 6.8 7.9 7.8 7.5 6.5 6.5 6.7 6.9 7.1 6.4 6.6 7.4 5.7 7.3 6.6 6.5 6.5 6.5 6.4 6.5 6.5 6.5 6.5 6.5 6.5 6.5 6.5 6.5 6.5
4.7 5.0 5.1 5.5 5.6 5.6 6.6 6.1 5.8 6.6 5.2 5.0 4.9 4.9 5.7 6.6 5.6 6.8 7.6 7.9 8.1 7.0 6.5 6.5 6.7 6.9 7.3 6.8 7.0 7.0 6.6 6.8 6.5 6.5 6.5 6.5 6.5 6.5 6.5 6.5 6.5 6.5 6.5 6.5 6.5 6.5 6.5
4.7 4.8 5.1 5.2 5.5 5.9 5.9 6.6 6.1 5.8 5.4 4.5 4.6 4.3 5.1 5.8 6.3 8.3 8.3 7.2 7.3 6.5 6.5 6.5 6.7 6.5 6.5 6.8 6.8 7.1 7.0 6.8 6.9 6.5 6.5 6.5 6.7 6.5 6.5 6.5 6.5 6.5 6.5 6.5 6.5 6.5 6.5
4.6 4.7 4.9 5.1 5.5 5.9 6.0 6.3 6.0 5.9 5.2 4.3 4.0 4.1 4.4 6.0 6.5 8.4 7.7 6.2 6.5 6.5 6.5 6.5 6.5 6.5 6.5 6.5 6.5 6.5 6.5 6.5 6.5 6.5 6.5 6.5 6.5 6.5 6.6 6.5 6.5 6.5 6.5 6.5 6.5 6.5 6.5
4.5 4.8 4.8 5.2 5.6 5.9 6.2 6.2 6.3 5.9 4.9 4.2 3.6 4.3 4.7 5.7 7.3 7.9 5.5 6.5 6.5 6.5 6.5 6.5 6.5 6.5 6.5 6.5 6.5 6.5 6.5 6.5 6.5 6.5 6.5 6.5 6.5 6.5 6.5 6.5 6.5 6.5 6.5 6.5 6.5 6.5 6.5
4.6 4.8 4.9 5.3 5.4 5.5 6.0 6.3 6.1 5.8 4.9 3.8 3.6 2.8 4.2 5.1 6.7 5.3 6.0 6.5 6.5 6.5 6.5 6.5 6.5 6.5 6.5 6.5 6.5 6.5 6.5 6.5 6.5 6.5 6.5 6.5 6.5 6.5 6.5 6.5 6.5 6.5 6.5 6.5 6.5 6.5 6.5
4.6 4.9 5.1 5.1 5.2 5.4 6.1 6.5 6.5 5.8 4.6 3.9 1.8 3.0 5.2 6.0 6.1 4.3 6.1 6.5 6.5 6.5 6.5 6.5 6.5 6.5 6.5 6.5 6.5 6.5 6.5 6.5 6.5 6.5 6.4 6.5 6.5 6.5 6.5 6.6 6.5 6.5 6.5 6.5 6.5 6.5 6.5
4.7 4.9 5.1 5.0 5.1 5.6 6.0 6.4 6.4 6.1 4.4 3.7 2.3 4.4 4.6 5.5 4.4 6.0 6.5 6.5 6.5 6.7 6.4 6.5 6.5 6.5 6.5 6.5 6.5 6.5 6.5 6.5 6.5 6.5 6.5 6.5 6.5 6.5 6.5 6.5 6.5 6.5 6.5 6.5 6.5 6.5 6.5
4.6 4.8 5.0 4.9 5.2 5.8 6.3 6.3 6.4 6.0 4.7 2.1 2.9 6.4 4.1 3.5 5.0 5.6 6.5 6.5 6.4 6.5 6.4 6.5 6.5 6.5 6.5 6.5 6.5 6.5 6.5 6.5 6.1 6.4 6.5 6.5 6.5 6.5 6.5 6.5 6.5 6.5 6.5 6.5 6.5 6.5 6.5
4.5 4.9 5.0 5.0 5.6 6.4 6.5 6.4 6.3 5.8 5.9 4.7 5.8 4.0 4.1 4.4 6.5 6.5 6.5 6.5 6.5 6.5 6.5 6.5 6.5 6.5 6.5 6.5 6.5 6.5 6.5 6.3 5.8 6.5 6.5 6.5 6.5 6.5 6.5 6.5 6.5 6.5 6.5 6.5 6.5 6.5 6.5
4.4 4.8 5.4 6.0 7.0 7.5 6.9 6.6 6.2 5.6 5.7 3.2 4.1 6.5 3.9 5.2 4.9 6.5 6.5 6.5 6.5 6.2 6.5 6.5 6.5 6.5 6.5 6.5 6.5 6.5 6.5 6.5 6.2 6.4 6.3 6.2 6.5 6.5 6.5 6.5 6.5 6.5 6.5 6.5 6.5 6.5 6.5
4.4 4.8 5.7 6.8 7.4 7.6 7.2 6.9 6.7 5.7 5.3 2.7 3.8 6.4 6.8 6.5 6.5 6.5 6.5 6.5 6.5 6.5 6.4 6.5 6.5 6.5 6.5 6.5 6.5 6.5 6.5 6.5 6.5 6.4 6.4 6.5 6.5 6.5 6.5 6.5 6.5 6.5 6.5 6.5 6.5 6.5 6.5
4.5 5.2 6.4 7.0 7.4 7.5 7.3 7.0 6.8 6.5 5.5 3.0 5.4 6.1 5.4 6.7 6.2 6.5 6.5 6.5 6.5 6.5 6.5 6.5 6.5 6.5 6.5 6.5 6.5 6.5 6.5 6.5 6.5 6.5 6.5 6.5 6.5 6.5 6.5 6.5 6.5 6.5 6.5 6.5 6.5 6.5 6.5
4.7 5.4 6.3 7.0 7.3 7.4 7.4 7.1 7.0 7.2 5.6 4.0 4.6 5.2 6.6 5.9 6.5 6.5 6.5 6.5 6.5 6.5 6.5 6.6 6.5 6.5 6.5 6.5 6.2 6.1 5.1 5.2 6.2 6.5 6.5 6.5 6.5 6.5 6.5 6.5 6.5 6.5 6.5 6.5 6.5 6.5 6.5
4.7 5.4 6.5 7.1 7.3 7.3 7.3 7.3 7.2 7.2 6.7 4.4 5.3 6.8 6.6 6.5 6.5 6.5 6.5 6.6 6.5 6.5 6.5 6.7 5.9 6.5 6.1 5.9 5.9 5.0 4.8 5.3 5.7 6.4 5.9 6.5 6.5 6.5 6.5 6.5 6.5 6.5 6.5 6.5 6.5 6.5 6.5
5.0 5.6 6.7 7.2 7.3 7.3 7.3 7.3 7.5 7.4 7.4 4.6 5.0 5.2 6.9 6.5 6.3 6.4 6.6 6.5 6.8 6.5 6.5 6.5 6.4 6.0 5.0 6.4 6.5 6.5 6.5 6.5 6.5 6.5 6.5 6.5 6.5 6.5 6.5 6.5 6.5 6.5 6.5 6.5 6.5 6.5 6.5
5.1 5.7 6.6 7.3 7.1 7.3 7.0 7.2 7.4 7.2 7.1 4.5 4.7 5.7 6.1 6.5 6.5 6.9 6.5 6.4 6.5 6.5 6.5 6.3 6.4 5.7 5.6 6.4 6.5 6.5 6.5 6.5 6.5 6.5 6.5 6.5 6.5 6.5 6.5 6.5 6.5 6.5 6.5 6.4 6.4 6.5 6.4
5.3 6.0 6.7 7.1 7.1 7.3 7.1 7.3 7.2 7.2 7.4 5.7 5.1 6.8 5.7 6.8 6.1 6.4 6.4 6.6 7.1 6.7 6.5 6.5 6.4 6.2 6.0 6.5 6.5 6.5 6.5 6.5 6.5 6.5 6.5 6.5 6.5 6.5 6.5 6.5 6.5 6.5 6.4 6.3 6.5 6.5 6.2
5.6 6.1 6.7 6.8 6.9 7.2 7.1 7.2 7.3 7.4 7.4 6.1 4.9 6.6 5.8 5.9 5.4 6.4 7.1 6.2 6.2 7.0 6.5 6.4 6.2 6.1 6.3 6.5 6.5 6.5 6.5 6.5 6.5 6.5 6.5 6.5 6.5 6.5 6.5 6.5 6.5 6.0 6.5 6.5 6.2 6.1 5.3
6.0 6.3 6.6 6.6 6.8 7.1 6.9 7.1 7.5 7.4 7.4 7.6 6.2 6.7 6.8 6.8 5.8 6.4 7.3 7.1 6.8 7.2 6.8 6.4 6.8 6.7 6.2 6.5 6.5 6.5 6.5 6.5 6.5 6.5 6.5 6.5 6.5 6.5 6.5 6.5 6.0 5.8 5.6 5.8 5.0 5.4 5.9
Wind_Speed
16 17 19 20 21 23 24 24 26 26 26 26 27 28 29 27 24 21 17 12 8 9 8 8 8 5 2 4 9 14 24 11 26 18 19 15 16 9 8 9 10 12 6 15 9 2 7
16 17 18 20 22 22 24 25 25 26 25 27 29 29 31 31 26 18 13 10 4 5 6 4 3 2 1 8 6 12 15 9 18 18 19 14 11 10 5 8 8 8 13 6 5 7 1
16 17 18 20 21 23 24 25 24 24 25 26 29 29 30 28 22 10 6 1 1 2 3 2 1 2 4 13 4 5 12 3 2 11 14 10 6 13 6 3 7 1 11 3 5 3 2
15 16 18 20 22 23 24 24 23 25 25 26 27 28 28 26 17 10 7 4 2 2 3 3 2 2 5 6 13 8 4 3 3 3 8 10 9 8 2 2 3 5 6 5 8 8 3
14 16 17 19 21 23 23 24 24 24 25 25 26 26 25 21 15 10 7 5 2 3 5 3 1 1 5 13 2 6 2 5 1 1 2 10 4 4 3 5 3 2 4 6 7 8 6
14 15 16 19 21 23 24 23 24 25 23 25 24 24 21 20 16 13 12 7 5 4 4 4 1 1 6 4 3 6 1 8 3 2 2 9 5 4 3 5 14 16 9 10 8 8 8
13 15 16 18 20 22 23 24 25 25 25 23 24 23 22 19 15 13 8 3 3 2 2 5 3 3 3 4 3 2 4 6 4 3 9 13 8 19 26 11 6 7 3 6 7 7 6
12 14 16 18 20 22 24 25 25 26 25 25 23 23 21 19 18 16 4 3 3 1 5 7 8 4 5 2 2 1 3 3 3 1 9 8 15 10 9 8 6 9 9 8 2 6 13
11 13 16 18 20 22 24 26 25 26 26 24 23 22 21 17 17 5 6 3 3 3 3 2 5 5 0 3 2 5 4 4 2 5 10 12 8 12 12 10 11 6 6 5 4 3 4
11 13 15 17 20 21 24 27 26 26 26 25 24 23 19 18 3 3 2 2 1 4 2 3 3 2 2 0 1 3 4 1 1 10 10 6 3 11 12 13 7 6 6 3 13 5 4
10 13 15 18 19 21 24 26 28 28 28 28 26 24 17 10 3 1 2 4 1 2 3 8 3 1 3 0 2 4 14 5 7 10 5 2 5 10 10 3 3 5 1 7 5 6 4
10 12 15 17 19 22 23 26 29 30 30 30 30 22 11 4 2 1 3 3 1 1 5 3 5 1 1 3 5 3 4 6 4 12 12 5 5 4 3 3 3 5 8 8 5 2 1
8 11 14 17 19 22 24 28 30 32 32 32 34 17 5 6 2 3 2 1 3 6 4 8 4 1 4 5 5 4 5 2 4 6 3 4 3 4 2 3 6 2 5 2 2 1 5
7 11 14 17 20 22 24 28 31 33 34 35 32 24 4 5 3 3 3 2 10 3 3 3 3 5 3 2 3 3 8 5 7 7 4 4 4 2 2 4 3 9 4 5 6 4 4
6 10 13 16 19 21 24 27 30 33 33 37 22 2 1 2 5 3 2 6 3 3 3 8 7 4 4 5 4 5 3 4 3 2 5 4 3 1 2 2 2 6 4 3 3 2 3
5 9 12 15 19 22 25 27 30 32 34 32 2 3 1 8 5 3 4 5 2 4 3 3 3 2 3 1 0 3 3 5 5 4 6 6 5 3 5 1 2 3 0 1 3 3 4
4 8 11 15 19 22 23 26 30 33 35 25 3 3 2 7 3 1 3 1 4 7 5 2 5 4 1 2 1 2 4 3 4 7 5 2 4 4 6 4 6 2 1 2 2 4 4
3 6 10 15 18 21 23 26 29 32 33 7 2 3 3 5 3 2 3 4 4 4 4 5 3 4 1 4 6 5 3 2 5 3 7 5 3 3 1 4 7 2 4 4 4 4 2
2 6 10 13 16 20 21 25 28 30 26 3 3 3 2 3 3 2 2 5 5 3 3 2 1 3 3 3 3 3 4 5 7 3 3 3 2 3 2 2 4 4 5 5 3 2 4
2 5 8 13 17 19 21 23 27 31 30 2 2 4 4 3 2 3 4 3 4 4 3 3 2 2 1 2 3 4 2 2 3 2 2 2 2 3 6 4 4 5 12 5 5 3 2
2 3 6 12 16 19 19 22 26 31 33 3 4 3 2 4 3 5 6 4 4 2 3 3 4 4 3 4 4 4 3 1 1 0 3 3 3 2 2 4 3 2 4 8 5 4 5
2 2 6 10 13 17 16 20 22 27 27 4 3 3 4 5 7 5 1 2 4 3 2 2 2 2 5 4 3 3 6 4 3 2 2 2 1 2 3 4 4 3 6 7 6 5 3
3 1 4 8 10 14 16 18 19 22 16 3 3 3 1 5 5 4 5 7 7 6 1 1 3 4 4 3 2 2 4 4 6 7 4 3 4 3 2 1 3 6 10 10 6 5 9
4 2 3 6 8 12 14 16 16 16 13 2 1 2 2 4 3 4 9 10 9 10 2 2 4 2 3 3 3 5 6 7 7 4 3 4 4 2 2 3 1 6 2 8 14 10 8
6 3 2 4 7 9 12 14 15 15 12 2 1 2 2 3 3 5 12 6 8 10 4 3 1 1 3 1 3 3 1 2 2 4 3 3 3 2 3 3 5 1 3 4 7 8 9
8 4 1 2 5 7 11 10 11 11 8 3 1 2 1 2 2 6 4 5 3 5 4 1 2 3 5 2 2 3 4 4 3 2 4 3 2 4 2 1 3 2 2 1 4 4 6
8 4 1 2 3 6 9 10 9 11 8 1 2 1 2 2 4 3 2 3 5 3 5 1 1 1 2 2 2 2 3 5 4 5 4 2 1 4 4 2 5 3 3 2 2 2 2
8 5 2 1 2 6 8 10 11 12 12 2 3 4 3 2 5 5 3 3 3 2 3 6 2 1 1 2 3 3 2 3 3 4 6 5 5 3 3 3 6 4 3 2 3 2 5
8 5 3 1 1 6 8 11 12 15 14 4 2 3 3 2 5 4 11 9 8 6 2 3 5 3 2 1 1 1 1 1 3 2 1 3 5 4 7 5 4 3 4 1 4 4 2
Wind_Direction
356 358 358 360 356 357 356 352 350 351 349 345 343 342 339 334 325 313 298 265 276 274 286 309 294 293 161 206 241 296 301 284 202 194 201 199 184 189 192 195 181 225 183 220 234 191 188
355 357 357 359 359 358 356 356 352 348 347 346 346 346 342 333 322 316 309 253 278 280 294 298 37 122 284 248 260 279 288 282 188 197 197 197 191 181 196 187 194 192 238 251 208 170 97
353 354 356 358 358 359 359 357 352 347 347 349 348 350 348 347 354 342 331 140 295 319 324 336 342 215 229 237 277 41 354 27 44 218 196 209 204 195 162 148 227 309 211 103 275 173 121
345 351 356 359 357 359 358 356 355 349 350 350 350 356 355 0 11 39 66 53 357 320 283 289 313 294 260 260 271 266 174 330 96 34 233 223 223 204 138 215 58 160 106 140 228 161 162
345 351 355 354 358 357 356 355 355 352 350 351 351 356 358 7 17 25 14 353 315 261 259 251 86 166 272 314 2 286 287 209 189 172 266 249 161 219 163 145 86 205 157 172 174 182 153
346 347 352 356 356 357 355 353 354 352 353 351 349 350 356 354 356 356 343 309 301 318 263 190 222 154 301 350 331 318 324 109 66 18 231 202 185 151 140 160 190 184 179 185 186 197 168
342 345 351 353 353 354 355 353 352 355 351 349 348 348 349 343 336 343 346 7 47 38 283 208 174 252 298 303 300 320 91 119 102 255 193 181 166 192 196 179 110 131 116 152 204 199 171
338 345 351 352 355 354 352 353 353 353 352 350 345 342 341 341 330 326 346 32 54 215 312 271 239 254 77 311 313 122 66 112 124 253 191 151 204 189 149 160 218 167 172 215 240 203 187
338 346 350 349 353 352 351 349 348 350 350 347 345 341 336 331 324 332 92 112 240 316 261 350 54 49 295 326 230 145 128 102 97 183 175 159 160 157 165 178 207 222 175 199 160 84 31
336 345 348 348 351 352 350 348 347 347 346 344 341 340 331 330 321 289 74 160 191 80 266 99 128 77 196 233 244 137 144 151 258 194 178 101 120 165 172 191 185 221 206 211 148 114 188
335 346 344 350 348 352 350 348 345 346 344 342 339 335 323 323 270 14 262 302 216 123 57 349 38 209 148 23 69 233 188 138 223 164 137 150 126 140 169 164 53 228 162 135 129 129 107
340 343 345 349 348 349 349 348 345 343 343 340 334 331 320 338 204 214 250 301 123 56 22 17 347 15 304 213 193 143 113 199 128 100 66 56 7 51 153 72 45 310 82 54 56 84 46
339 343 347 347 350 348 348 348 348 344 343 340 332 333 302 297 199 215 345 4 28 53 305 2 46 349 84 41 57 31 103 32 82 89 81 91 25 7 344 94 341 11 103 53 24 11 216
338 348 348 349 351 349 349 349 350 343 342 340 333 325 215 216 157 68 44 55 61 309 333 326 278 69 87 110 15 93 139 77 30 82 105 131 142 11 38 149 207 201 169 154 177 194 221
347 349 351 352 352 351 349 349 349 345 343 340 335 357 202 240 181 78 35 50 117 269 297 332 319 19 27 111 97 79 132 104 117 89 110 130 102 61 248 117 210 190 196 173 125 39 82
357 354 356 355 355 354 349 351 350 347 345 339 335 326 267 148 118 47 63 110 204 195 252 255 307 236 31 168 201 165 116 124 138 168 133 162 118 197 154 205 270 248 299 98 4 150 232
0 357 0 360 357 356 350 352 350 349 347 343 77 30 205 131 80 48 97 156 203 205 216 254 311 51 332 316 177 57 38 53 107 165 145 151 110 147 146 203 182 104 149 200 141 153 188
8 3 6 6 359 357 354 355 352 353 354 10 25 66 211 124 48 166 104 161 273 177 176 254 257 313 25 358 22 61 87 58 2 131 145 163 106 114 119 203 180 79 202 184 140 237 226
34 16 14 7 0 1 355 354 353 352 0 338 345 274 340 101 62 63 198 169 215 268 192 183 211 1 1 45 87 81 69 353 16 51 137 160 134 103 67 30 209 186 246 207 115 100 217
66 28 16 11 9 3 360 358 355 351 351 65 351 359 326 330 15 7 8 209 182 205 226 265 219 269 294 60 62 134 108 23 4 83 343 121 107 163 182 191 140 183 186 173 154 136 237
121 25 13 16 11 6 3 4 1 352 349 80 34 25 45 332 323 339 331 304 328 193 234 210 226 206 191 162 161 123 111 142 54 35 22 89 124 97 51 98 82 174 185 170 166 180 154
184 5 0 11 9 9 8 6 4 2 357 73 72 26 345 297 291 298 278 347 34 1 28 357 25 6 62 98 114 143 140 175 187 221 108 57 159 92 340 162 150 215 242 202 199 211 243
193 296 3 13 14 12 12 10 11 16 21 62 344 334 14 284 315 327 9 353 351 344 300 352 331 335 107 147 99 106 112 94 149 150 154 119 131 98 258 324 351 297 221 201 197 190 191
207 248 3 21 12 11 10 12 12 15 32 117 240 301 28 294 326 2 328 330 343 331 298 327 32 358 245 303 354 46 60 72 67 55 141 128 121 119 181 37 343 249 125 198 200 196 198
210 233 338 11 14 4 10 7 7 15 24 74 327 75 10 295 316 323 342 338 343 311 277 235 35 287 341 53 83 109 204 136 139 55 15 114 130 132 138 194 269 222 233 164 167 234 203
206 210 272 5 10 1 7 12 2 14 9 47 311 140 22 323 203 324 316 316 308 307 298 101 323 355 45 91 87 174 191 178 164 142 21 48 94 124 134 166 241 240 211 192 115 257 220
200 204 248 6 9 358 2 5 2 354 347 53 285 213 87 286 289 60 8 314 319 343 297 259 282 292 60 99 131 189 234 157 168 179 159 124 337 174 229 237 284 234 169 93 163 253 52
190 197 227 156 5 349 356 354 354 352 5 107 270 266 152 225 268 248 247 227 298 231 295 343 274 289 81 147 167 223 170 223 191 166 166 165 181 184 188 204 266 164 107 203 189 15 105
193 194 189 154 336 336 344 342 336 348 350 346 233 280 168 224 252 284 264 251 226 192 218 277 305 300 323 146 256 125 235 45 165 218 39 178 183 197 173 214 220 187 172 157 151 138 115